CW6538 Cattolica IT current weather conditions

sailwx.info

Wind from 061 at 11 knots gusting 24

Air temperature 9.4° C
Dewpoint -2.5° C

Last reported at 2015-Mar-06 16:49 UTC.
Time now 2015-Mar-06 17:42 UTC

Location: N 43°58' E 012°44'.
View on Google Maps.

See reports from other nearby stations

  
Tides and Currents Weather Stations Pressure Air Temp Water Temp Dewpoint Dewpoint Depression Visibility Wind Speed Wind Dir Waves Ship Positions
date/time (UTC)wind fromknots sea level pressurealtimeterstation pressurevisibilityair tempwater tempwave heightnotes
2015-Mar-06 16:49 061 11 gusting 24 9.4
2015-Mar-06 16:44 031 16 gusting 24 9.4
2015-Mar-06 16:39 360 13 gusting 23 9.4
2015-Mar-06 16:34 019 10 gusting 19 9.4
2015-Mar-06 16:29 048 10 gusting 20 10.0
2015-Mar-06 16:24 012 13 gusting 24 10.0
2015-Mar-06 16:19 055 11 gusting 24 10.0
2015-Mar-06 16:14 036 12 gusting 21 10.0
2015-Mar-06 16:09 032 10 gusting 21 10.0
2015-Mar-06 16:04 076 11 gusting 19 10.0
2015-Mar-06 15:59 067 12 gusting 27 10.0
2015-Mar-06 15:54 075 13 gusting 27 10.0
2015-Mar-06 15:49 059 13 gusting 24 10.0
2015-Mar-06 15:44 026 14 gusting 22 10.0
2015-Mar-06 15:39 052 11 gusting 22 10.0
2015-Mar-06 15:34 052 10 gusting 22 10.0
2015-Mar-06 15:29 138 9 gusting 21 10.0
2015-Mar-06 15:24 061 13 gusting 21 10.0
2015-Mar-06 15:19 027 11 gusting 22 10.6
2015-Mar-06 15:14 036 14 gusting 22 10.6
2015-Mar-06 15:09 061 13 gusting 23 10.6
2015-Mar-06 15:04 049 13 gusting 23 10.6
2015-Mar-06 14:59 051 13 gusting 23 10.6
2015-Mar-06 14:54 046 12 gusting 22 10.6
2015-Mar-06 14:49 032 12 gusting 25 10.6
2015-Mar-06 14:44 062 14 gusting 25 10.6
2015-Mar-06 14:39 063 14 gusting 25 10.6
2015-Mar-06 14:34 025 14 gusting 23 10.6
2015-Mar-06 14:29 028 13 gusting 23 10.6
2015-Mar-06 14:24 011 13 gusting 22 10.6
2015-Mar-06 14:19 059 12 gusting 24 10.6
2015-Mar-06 14:14 073 10 gusting 24 10.6
2015-Mar-06 14:09 055 13 gusting 22 10.6
2015-Mar-06 14:04 059 12 gusting 25 10.6
2015-Mar-06 13:59 046 14 gusting 25 10.6
2015-Mar-06 13:54 015 13 gusting 26 10.6
2015-Mar-06 13:49 049 17 gusting 26 10.6
2015-Mar-06 13:44 056 14 gusting 26 10.6
2015-Mar-06 13:39 022 15 gusting 25 10.6
2015-Mar-06 13:34 034 10 gusting 24 10.6
2015-Mar-06 13:29 055 14 gusting 24 10.6
2015-Mar-06 13:24 074 13 gusting 26 10.6
2015-Mar-06 13:19 049 17 gusting 26 10.6
2015-Mar-06 13:14 048 13 gusting 24 10.6
2015-Mar-06 13:09 039 16 gusting 25 10.6
2015-Mar-06 13:04 033 16 gusting 26 10.6
2015-Mar-06 12:59 355 14 gusting 27 10.6
2015-Mar-06 12:54 011 13 gusting 23 10.6
2015-Mar-06 12:49 040 16 gusting 23 10.6
2015-Mar-06 12:44 046 12 gusting 23 10.6
2015-Mar-06 12:39 044 13 gusting 23 10.6
2015-Mar-06 12:34 041 13 gusting 22 10.6
2015-Mar-06 12:29 027 16 gusting 25 10.6
2015-Mar-06 12:24 034 13 gusting 25 10.6
2015-Mar-06 12:19 039 14 gusting 30 10.6
2015-Mar-06 12:14 045 18 gusting 30 10.6
2015-Mar-06 12:09 072 15 gusting 30 10.6
2015-Mar-06 12:04 051 16 gusting 28 11.1
2015-Mar-06 11:59 053 13 gusting 24 11.1
2015-Mar-06 11:54 038 13 gusting 26 11.1
2015-Mar-06 11:49 068 16 gusting 26 11.1
2015-Mar-06 11:44 065 14 gusting 24 11.1
2015-Mar-06 11:39 019 14 gusting 23 11.1
2015-Mar-06 11:34 037 8 gusting 17 11.1
2015-Mar-06 11:29 011 10 gusting 17 11.1
2015-Mar-06 11:24 044 8 gusting 15 11.1
2015-Mar-06 11:19 049 7 gusting 13 11.1
2015-Mar-06 11:14 009 6 gusting 13 11.1
2015-Mar-06 11:09 020 6 gusting 13 11.1
2015-Mar-06 11:04 020 7 gusting 15 10.6
2015-Mar-06 10:59 005 9 gusting 15 10.6
2015-Mar-06 10:54 033 7 gusting 12 10.6
2015-Mar-06 10:49 360 4 gusting 13 10.6
2015-Mar-06 10:44 011 9 gusting 13 10.6
2015-Mar-06 10:39 010 8 gusting 13 10.6
2015-Mar-06 10:34 010 6 gusting 13 10.6
2015-Mar-06 10:29 350 6 gusting 15 10.6
2015-Mar-06 10:24 039 6 gusting 13 10.0
2015-Mar-06 10:19 037 8 gusting 19 10.0
2015-Mar-06 10:14 058 11 gusting 19 10.0
2015-Mar-06 10:09 009 9 gusting 22 10.0
2015-Mar-06 10:04 049 10 gusting 20 10.0
2015-Mar-06 09:59 046 10 gusting 20 10.0
2015-Mar-06 09:54 021 10 gusting 21 10.0
2015-Mar-06 09:49 026 12 gusting 26 10.0
2015-Mar-06 09:44 027 15 gusting 26 9.4
2015-Mar-06 09:39 024 17 gusting 31 9.4
2015-Mar-06 09:34 360 19 gusting 31 9.4
2015-Mar-06 09:29 037 13 gusting 29 9.4
2015-Mar-06 09:24 036 18 gusting 29 9.4
2015-Mar-06 09:19 342 15 gusting 29 9.4
2015-Mar-06 09:14 355 15 gusting 29 9.4
2015-Mar-06 09:09 024 13 gusting 27 9.4
2015-Mar-06 09:04 019 13 gusting 28 8.9
2015-Mar-06 08:59 047 17 gusting 29 8.3
2015-Mar-06 08:54 078 17 gusting 29 8.3
2015-Mar-06 08:49 040 13 gusting 29 8.3
2015-Mar-06 08:44 019 17 gusting 29 8.3
2015-Mar-06 08:39 043 16 gusting 32 8.3
2015-Mar-06 08:34 057 16 gusting 32 8.3
2015-Mar-06 08:29 021 11 gusting 25 8.3
2015-Mar-06 08:24 047 13 gusting 26 8.3
2015-Mar-06 08:19 351 13 gusting 25 8.3
2015-Mar-06 08:14 046 16 gusting 27 8.3
2015-Mar-06 08:09 053 17 gusting 29 8.3
2015-Mar-06 08:04 360 13 gusting 24 8.3
2015-Mar-06 07:59 033 13 gusting 25 8.3
2015-Mar-06 07:54 009 13 gusting 27 8.3
2015-Mar-06 07:49 038 12 gusting 27 8.3
2015-Mar-06 07:44 013 14 gusting 25 8.3
2015-Mar-06 07:39 051 12 gusting 28 8.3
2015-Mar-06 07:34 033 15 gusting 28 8.3
2015-Mar-06 07:29 018 13 gusting 21 8.3
2015-Mar-06 07:24 067 10 gusting 29 8.3
2015-Mar-06 07:19 066 13 gusting 29 8.3
2015-Mar-06 07:14 021 15 gusting 25 8.3
2015-Mar-06 07:09 046 13 gusting 26 8.3
2015-Mar-06 07:04 052 16 gusting 36 7.8
2015-Mar-06 06:59 074 21 gusting 36 7.8
2015-Mar-06 06:54 005 20 gusting 33 7.8
2015-Mar-06 06:49 024 13 gusting 27 7.8
2015-Mar-06 06:44 021 13 gusting 26 7.8
2015-Mar-06 06:39 037 17 gusting 28 7.8
2015-Mar-06 06:34 033 14 gusting 28 7.8
2015-Mar-06 06:29 023 11 gusting 26 7.8
2015-Mar-06 06:24 023 12 gusting 26 7.8
2015-Mar-06 06:19 355 13 gusting 28 7.8
2015-Mar-06 06:14 055 18 gusting 28 7.8
2015-Mar-06 06:09 024 13 gusting 26 7.8
2015-Mar-06 06:04 056 15 gusting 27 7.8
2015-Mar-06 05:59 044 13 gusting 27 7.8
2015-Mar-06 05:54 022 15 gusting 27 7.8
2015-Mar-06 05:49 042 18 gusting 27 7.8
2015-Mar-06 05:44 038 13 gusting 25 7.8
2015-Mar-06 05:39 014 13 gusting 25 7.8
2015-Mar-06 05:34 018 13 gusting 28 7.8
2015-Mar-06 05:29 048 14 gusting 28 7.8
2015-Mar-06 05:24 021 13 gusting 26 7.8
2015-Mar-06 05:19 346 16 gusting 26 7.8
2015-Mar-06 05:14 005 13 gusting 26 7.8
2015-Mar-06 05:09 024 11 gusting 20 7.8
2015-Mar-06 05:04 030 12 gusting 22 8.3
2015-Mar-06 04:59 355 13 gusting 24 8.3
2015-Mar-06 04:54 049 16 gusting 26 8.3
2015-Mar-06 04:49 360 15 gusting 26 8.3
2015-Mar-06 04:44 022 14 gusting 29 8.3
2015-Mar-06 04:39 022 19 gusting 33 8.3
2015-Mar-06 04:34 005 14 gusting 33 8.3
2015-Mar-06 04:29 051 15 gusting 31 8.3
2015-Mar-06 04:24 032 16 gusting 33 8.3
2015-Mar-06 04:19 058 19 gusting 33 8.3
2015-Mar-06 04:14 011 14 gusting 36 8.3
2015-Mar-06 04:09 061 16 gusting 36 8.3
2015-Mar-06 04:04 050 18 gusting 32 8.3
2015-Mar-06 03:59 019 16 gusting 31 8.3
2015-Mar-06 03:54 051 18 gusting 33 8.3
2015-Mar-06 03:49 018 13 gusting 28 8.3
2015-Mar-06 03:44 360 18 gusting 28 8.3
2015-Mar-06 03:39 024 15 gusting 26 8.3
2015-Mar-06 03:34 060 13 gusting 29 8.3
2015-Mar-06 03:29 055 17 gusting 29 8.3
2015-Mar-06 03:24 032 13 gusting 33 8.3
2015-Mar-06 03:19 069 17 gusting 33 8.3
2015-Mar-06 03:14 057 17 gusting 33 8.3
2015-Mar-06 03:09 051 17 gusting 33 8.3
2015-Mar-06 03:04 033 18 gusting 33 8.3
2015-Mar-06 02:59 040 19 gusting 33 8.3
2015-Mar-06 02:54 022 16 gusting 31 8.3
2015-Mar-06 02:49 013 16 gusting 31 8.3
2015-Mar-06 02:44 029 18 gusting 35 8.3
2015-Mar-06 02:39 027 20 gusting 35 8.3
2015-Mar-06 02:34 022 17 gusting 30 8.3
2015-Mar-06 02:29 005 18 gusting 38 8.3
2015-Mar-06 02:24 052 16 gusting 38 8.3
2015-Mar-06 02:19 046 19 gusting 37 8.3
2015-Mar-06 02:14 051 19 gusting 37 8.3
2015-Mar-06 02:09 025 21 gusting 38 8.3
2015-Mar-06 02:04 036 22 gusting 38 8.3
2015-Mar-06 01:59 024 19 gusting 39 8.3
2015-Mar-06 01:54 022 19 gusting 39 8.3
2015-Mar-06 01:49 063 18 gusting 33 8.3
2015-Mar-06 01:44 057 18 gusting 34 8.3
2015-Mar-06 01:39 057 23 gusting 37 8.3
2015-Mar-06 01:34 046 19 gusting 34 8.3
2015-Mar-06 01:29 017 19 gusting 33 8.3
2015-Mar-06 01:24 044 19 gusting 37 8.3
2015-Mar-06 01:19 044 20 gusting 34 8.3
2015-Mar-06 01:14 047 18 gusting 36 8.3
2015-Mar-06 01:09 024 21 gusting 36 8.3
2015-Mar-06 01:04 042 20 gusting 35 8.3
2015-Mar-06 00:59 033 19 gusting 31 8.3
2015-Mar-06 00:54 032 19 gusting 39 8.3
2015-Mar-06 00:49 057 22 gusting 40 8.3
2015-Mar-06 00:44 030 22 gusting 39 8.3
2015-Mar-06 00:39 034 19 gusting 40 8.3
2015-Mar-06 00:34 028 21 gusting 40 8.3
2015-Mar-06 00:29 055 16 gusting 39 8.3
2015-Mar-06 00:24 022 22 gusting 39 8.3
2015-Mar-06 00:19 036 17 gusting 33 8.3
2015-Mar-06 00:14 045 17 gusting 38 8.3
2015-Mar-06 00:09 054 19 gusting 38 8.3
2015-Mar-06 00:04 046 13 gusting 33 8.3
2015-Mar-05 23:59 073 18 gusting 39 8.3
2015-Mar-05 23:54 051 19 gusting 39 8.3
2015-Mar-05 23:44 076 18 gusting 37 8.3
2015-Mar-05 23:39 035 21 gusting 37 8.3
2015-Mar-05 23:34 045 20 gusting 40 8.3
2015-Mar-05 23:29 036 19 gusting 35 8.3
2015-Mar-05 23:24 350 20 gusting 37 8.9
2015-Mar-05 23:19 034 23 gusting 37 8.9
2015-Mar-05 23:09 071 16 gusting 28 8.9
2015-Mar-05 23:04 355 18 gusting 36 8.9
2015-Mar-05 22:59 013 19 gusting 36 8.9
2015-Mar-05 22:49 030 22 gusting 38 8.9
2015-Mar-05 22:44 033 21 gusting 38 8.9
2015-Mar-05 22:34 057 17 gusting 31 8.9
2015-Mar-05 22:29 063 19 gusting 35 8.9
2015-Mar-05 22:19 043 19 gusting 39 8.9
2015-Mar-05 22:14 050 18 gusting 36 8.9
2015-Mar-05 22:04 036 17 gusting 32 8.9
2015-Mar-05 21:59 035 20 gusting 39 8.9
2015-Mar-05 21:54 063 23 gusting 39 8.9
2015-Mar-05 21:49 036 19 gusting 32 8.9
2015-Mar-05 21:44 005 18 gusting 33 8.9
2015-Mar-05 21:34 038 20 gusting 33 8.9
2015-Mar-05 21:29 044 18 gusting 34 9.4
2015-Mar-05 21:19 360 19 gusting 35 9.4
2015-Mar-05 21:14 017 19 gusting 35 9.4
2015-Mar-05 21:09 347 20 gusting 33 9.4
2015-Mar-05 21:04 032 23 gusting 33 9.4
2015-Mar-05 20:54 057 18 gusting 37 9.4
2015-Mar-05 20:44 032 19 gusting 32 9.4
2015-Mar-05 20:34 047 19 gusting 38 9.4
2015-Mar-05 20:29 036 18 gusting 38 9.4
2015-Mar-05 20:24 044 18 gusting 38 9.4
2015-Mar-05 20:19 046 23 gusting 38 9.4
2015-Mar-05 20:14 038 17 gusting 34 9.4
2015-Mar-05 20:09 029 17 gusting 31 9.4
2015-Mar-05 20:04 023 20 gusting 31 9.4
2015-Mar-05 19:59 040 19 gusting 31 9.4
2015-Mar-05 19:54 018 19 gusting 34 9.4
2015-Mar-05 19:49 046 19 gusting 36 9.4
2015-Mar-05 19:44 005 23 gusting 36 9.4
2015-Mar-05 19:39 019 16 gusting 35 9.4
2015-Mar-05 19:34 034 20 gusting 33 9.4
2015-Mar-05 19:29 051 20 gusting 33 9.4
2015-Mar-05 19:24 040 20 gusting 33 9.4
2015-Mar-05 19:19 035 18 gusting 32 9.4
2015-Mar-05 19:14 041 17 gusting 36 9.4
2015-Mar-05 19:09 051 21 gusting 36 9.4
2015-Mar-05 19:04 019 21 gusting 35 9.4
2015-Mar-05 18:59 044 19 gusting 36 9.4
2015-Mar-05 18:54 065 24 gusting 35 9.4
2015-Mar-05 18:49 028 15 gusting 33 9.4
2015-Mar-05 18:44 015 21 gusting 33 9.4
2015-Mar-05 18:39 044 22 gusting 34 9.4
2015-Mar-05 18:34 005 20 gusting 34 9.4
2015-Mar-05 18:29 050 18 gusting 34 9.4
2015-Mar-05 18:24 049 21 gusting 36 9.4
2015-Mar-05 18:19 032 23 gusting 36 9.4
2015-Mar-05 18:14 036 21 gusting 40 9.4
2015-Mar-05 18:09 036 25 gusting 40 9.4
2015-Mar-05 18:04 040 18 gusting 34 9.4
2015-Mar-05 17:59 029 19 gusting 34 9.4
2015-Mar-05 17:54 032 21 gusting 33 9.4
2015-Mar-05 17:49 005 21 gusting 39 9.4
2015-Mar-05 17:44 033 21 gusting 39 9.4
2015-Mar-05 17:39 055 19 gusting 32 9.4
2015-Mar-05 17:34 023 20 gusting 31 9.4
2015-Mar-05 17:29 017 16 gusting 33 9.4
2015-Mar-05 17:24 039 18 gusting 32 9.4
2015-Mar-05 17:19 053 20 gusting 33 9.4
2015-Mar-05 17:14 019 18 gusting 34 9.4
2015-Mar-05 17:09 355 23 gusting 34 9.4
2015-Mar-05 17:04 098 15 gusting 30 9.4
2015-Mar-05 16:59 051 15 gusting 32 9.4
2015-Mar-05 16:54 020 19 gusting 34 9.4
2015-Mar-05 16:49 360 22 gusting 40 9.4
2015-Mar-05 16:44 054 19 gusting 40 9.4
2015-Mar-05 16:39 355 18 gusting 33 9.4
2015-Mar-05 16:34 069 21 gusting 31 9.4
2015-Mar-05 16:29 072 17 gusting 37 9.4
2015-Mar-05 16:24 360 21 gusting 38 9.4
2015-Mar-05 16:19 046 24 gusting 36 9.4
2015-Mar-05 16:14 017 17 gusting 35 9.4
2015-Mar-05 16:09 051 20 gusting 39 9.4
2015-Mar-05 16:04 049 20 gusting 38 9.4
2015-Mar-05 15:59 033 19 gusting 38 9.4
2015-Mar-05 15:54 049 23 gusting 38 9.4
2015-Mar-05 15:49 034 20 gusting 34 9.4
2015-Mar-05 15:44 052 22 gusting 36 9.4
2015-Mar-05 15:39 022 20 gusting 36 9.4
2015-Mar-05 15:29 343 18 gusting 37 9.4
2015-Mar-05 15:24 047 19 gusting 38 9.4
2015-Mar-05 15:19 009 14 gusting 28 9.4
2015-Mar-05 15:14 062 18 gusting 28 8.9
2015-Mar-05 15:09 052 15 gusting 30 9.4
2015-Mar-05 15:04 026 20 gusting 30 9.4
2015-Mar-05 14:59 061 15 gusting 34 9.4
2015-Mar-05 14:54 092 18 gusting 32 8.9
2015-Mar-05 14:49 024 19 gusting 32 8.9
2015-Mar-05 14:44 053 18 gusting 26 8.9
2015-Mar-05 14:39 005 18 gusting 28 8.9
2015-Mar-05 14:34 027 18 gusting 33 8.9
2015-Mar-05 14:29 019 19 gusting 33 8.9
2015-Mar-05 14:24 039 15 gusting 31 8.9
2015-Mar-05 14:19 015 18 gusting 31 8.9
2015-Mar-05 14:14 028 19 gusting 29 8.9
2015-Mar-05 14:09 046 17 gusting 33 8.9
2015-Mar-05 14:04 036 19 gusting 33 8.9
2015-Mar-05 13:59 014 19 gusting 33 8.9
2015-Mar-05 13:54 340 19 gusting 31 8.9
2015-Mar-05 13:49 019 13 gusting 30 8.9
2015-Mar-05 13:44 018 19 gusting 33 8.9
2015-Mar-05 13:39 012 19 gusting 31 8.9
2015-Mar-05 13:34 022 14 gusting 31 8.9
2015-Mar-05 13:29 016 19 gusting 33 8.9
2015-Mar-05 13:24 022 18 gusting 33 8.9
2015-Mar-05 13:19 055 17 gusting 33 8.9
2015-Mar-05 13:14 067 19 gusting 33 8.9
2015-Mar-05 13:09 045 14 gusting 31 8.9
2015-Mar-05 13:04 014 14 gusting 31 8.9
2015-Mar-05 12:59 046 17 gusting 32 8.9
2015-Mar-05 12:54 037 16 gusting 32 8.9
2015-Mar-05 12:49 005 15 gusting 33 8.9
2015-Mar-05 12:44 026 19 gusting 32 8.9
2015-Mar-05 12:39 011 19 gusting 32 8.9
2015-Mar-05 12:34 057 21 gusting 32 8.9
2015-Mar-05 12:29 040 15 gusting 26 8.9
2015-Mar-05 12:24 360 13 gusting 31 8.9
2015-Mar-05 12:19 064 17 gusting 31 8.9
2015-Mar-05 12:14 055 17 gusting 35 8.3
2015-Mar-05 12:09 025 22 gusting 35 8.3
2015-Mar-05 12:04 022 17 gusting 37 8.3
2015-Mar-05 11:59 032 19 gusting 37 8.3
2015-Mar-05 11:54 355 17 gusting 32 8.3
2015-Mar-05 11:49 041 19 gusting 36 8.3
2015-Mar-05 11:44 013 16 gusting 30 8.3
2015-Mar-05 11:39 005 17 gusting 28 8.3
2015-Mar-05 11:34 095 16 gusting 32 8.3
2015-Mar-05 11:29 294 16 gusting 32 8.3
2015-Mar-05 11:24 021 17 gusting 32 8.3
2015-Mar-05 11:19 063 17 gusting 27 8.3
2015-Mar-05 11:14 016 13 gusting 28 8.3
2015-Mar-05 11:09 010 13 gusting 33 8.3
2015-Mar-05 11:04 040 16 gusting 33 8.3
2015-Mar-05 10:59 009 13 gusting 26 8.3
2015-Mar-05 10:54 055 13 gusting 31 8.3
2015-Mar-05 10:49 011 19 gusting 31 8.3
2015-Mar-05 10:39 048 16 gusting 29 8.3
2015-Mar-05 10:34 013 16 gusting 31 8.3
2015-Mar-05 10:29 024 17 gusting 31 8.3
2015-Mar-05 10:24 012 17 gusting 28 8.3
2015-Mar-05 10:19 046 17 gusting 28 8.3
2015-Mar-05 10:14 337 13 gusting 26 8.3
2015-Mar-05 10:09 031 13 gusting 32 8.3
2015-Mar-05 10:04 061 17 gusting 32 8.3
2015-Mar-05 09:59 019 16 gusting 33 8.3
2015-Mar-05 09:54 062 21 gusting 33 8.3
2015-Mar-05 09:49 063 21 gusting 31 8.3
2015-Mar-05 09:44 041 19 gusting 33 8.3
2015-Mar-05 09:39 037 21 gusting 39 8.3
2015-Mar-05 09:34 024 20 gusting 38 8.3
2015-Mar-05 09:29 096 21 gusting 38 8.3
2015-Mar-05 09:24 034 17 gusting 33 8.3
2015-Mar-05 09:19 023 19 gusting 33 8.3
2015-Mar-05 09:14 040 21 gusting 37 8.3
2015-Mar-05 09:09 059 20 gusting 37 8.3
2015-Mar-05 09:04 044 20 gusting 39 8.3
2015-Mar-05 08:59 017 26 gusting 39 7.8
2015-Mar-05 08:54 028 19 gusting 38 7.8
2015-Mar-05 08:49 032 22 gusting 37 7.8
2015-Mar-05 08:44 011 22 gusting 36 7.8
2015-Mar-05 08:39 019 21 gusting 36 7.8
2015-Mar-05 08:34 045 21 gusting 34 7.8
2015-Mar-05 08:29 043 20 gusting 35 7.8
2015-Mar-05 08:24 050 22 gusting 35 8.3
2015-Mar-05 08:19 069 21 gusting 35 7.8
2015-Mar-05 08:14 023 23 gusting 38 7.8
2015-Mar-05 08:09 051 20 gusting 38 7.8
2015-Mar-05 08:04 034 18 gusting 35 7.8
2015-Mar-05 07:59 026 19 gusting 34 7.8
2015-Mar-05 07:49 024 21 gusting 35 7.8
2015-Mar-05 07:44 027 19 gusting 36 7.8
2015-Mar-05 07:39 042 24 gusting 36 7.8
2015-Mar-05 07:34 046 19 gusting 34 7.8
2015-Mar-05 07:29 009 21 gusting 37 7.8
2015-Mar-05 07:24 028 19 gusting 38 7.8
2015-Mar-05 07:19 024 18 gusting 38 7.8
2015-Mar-05 07:14 043 22 gusting 34 7.8
2015-Mar-05 07:09 032 20 gusting 33 7.8
2015-Mar-05 07:04 049 19 gusting 34 7.8
2015-Mar-05 06:59 048 21 gusting 39 7.8
2015-Mar-05 06:54 005 26 gusting 40 7.8
2015-Mar-05 06:49 017 21 gusting 40 7.8
2015-Mar-05 06:44 017 19 gusting 39 7.8
2015-Mar-05 06:39 005 18 gusting 41 7.8
2015-Mar-05 06:34 059 26 gusting 41 7.8
2015-Mar-05 06:29 069 20 gusting 39 7.8
2015-Mar-05 06:24 026 21 gusting 40 7.8
2015-Mar-05 06:19 026 26 gusting 40 7.8
2015-Mar-05 06:09 024 25 gusting 45 7.8
2015-Mar-05 06:04 047 26 gusting 39 7.8
2015-Mar-05 05:59 014 23 gusting 40 7.8
2015-Mar-05 05:54 059 24 gusting 40 7.8
2015-Mar-05 05:49 046 20 gusting 41 8.3
2015-Mar-05 05:44 059 27 gusting 41 7.8
2015-Mar-05 05:39 069 20 gusting 37 8.3
2015-Mar-05 05:34 059 23 gusting 36 8.3
2015-Mar-05 05:29 046 21 gusting 39 7.8
2015-Mar-05 05:24 048 19 gusting 35 7.8
2015-Mar-05 05:19 015 15 gusting 33 7.8
2015-Mar-05 05:14 043 19 gusting 34 7.8
2015-Mar-05 05:09 069 18 gusting 37 7.8
2015-Mar-05 05:04 057 22 gusting 37 7.8
2015-Mar-05 04:59 049 20 gusting 45 7.8
2015-Mar-05 04:54 037 25 gusting 45 7.8
2015-Mar-05 04:49 034 20 gusting 39 7.8
2015-Mar-05 04:44 073 20 gusting 39 7.2
2015-Mar-05 04:39 033 21 gusting 39 7.2
2015-Mar-05 04:34 040 19 gusting 35 6.7
2015-Mar-05 04:29 028 19 gusting 36 6.7
2015-Mar-05 04:24 053 21 gusting 38 6.7
2015-Mar-05 04:19 076 19 gusting 38 6.7
2015-Mar-05 04:14 005 19 gusting 37 6.7
2015-Mar-05 04:09 055 19 gusting 34 6.1
2015-Mar-05 04:04 055 17 gusting 34 6.1
2015-Mar-05 03:59 064 16 gusting 34 6.1
2015-Mar-05 03:54 039 19 gusting 34 6.1
2015-Mar-05 03:49 064 19 gusting 41 6.1
2015-Mar-05 03:44 040 25 gusting 41 6.1
2015-Mar-05 03:39 044 19 gusting 36 6.1
2015-Mar-05 03:34 038 20 gusting 35 6.1
2015-Mar-05 03:29 046 21 gusting 35 6.1
2015-Mar-05 03:24 057 23 gusting 35 6.1
2015-Mar-05 03:19 043 20 gusting 34 6.1
2015-Mar-05 03:14 013 18 gusting 33 6.1
2015-Mar-05 03:09 031 19 gusting 33 6.1
2015-Mar-05 03:04 023 21 gusting 33 6.1
2015-Mar-05 02:54 026 21 gusting 34 6.1
2015-Mar-05 02:49 079 20 gusting 33 6.1
2015-Mar-05 02:44 045 16 gusting 32 6.1
2015-Mar-05 02:39 031 14 gusting 33 6.1
2015-Mar-05 02:34 028 19 gusting 33 6.1
2015-Mar-05 02:29 037 17 gusting 33 6.1
2015-Mar-05 02:24 024 20 gusting 33 6.1
2015-Mar-05 02:19 064 18 gusting 29 6.1
2015-Mar-05 02:14 058 17 gusting 29 6.1
2015-Mar-05 02:09 026 17 gusting 28 6.1
2015-Mar-05 01:59 053 20 gusting 29 6.7
2015-Mar-05 01:54 049 14 gusting 28 6.7
2015-Mar-05 01:49 047 13 gusting 29 6.7
2015-Mar-05 01:44 061 16 gusting 29 6.7
2015-Mar-05 01:39 038 19 gusting 31 6.7
2015-Mar-05 01:34 069 19 gusting 33 6.7
2015-Mar-05 01:29 051 17 gusting 34 6.7
2015-Mar-05 01:24 027 19 gusting 32 6.7
2015-Mar-05 01:14 036 19 gusting 33 6.7
2015-Mar-05 01:09 013 19 gusting 32 6.7
2015-Mar-05 01:04 047 20 gusting 30 6.7
2015-Mar-05 00:59 026 21 gusting 31 6.7
2015-Mar-05 00:54 059 16 gusting 32 6.7
2015-Mar-05 00:49 059 19 gusting 34 6.7
2015-Mar-05 00:44 051 22 gusting 34 6.7
2015-Mar-05 00:34 071 19 gusting 34 6.7
2015-Mar-05 00:29 355 16 gusting 34 6.7
2015-Mar-05 00:24 040 20 gusting 33 6.7
2015-Mar-05 00:19 027 22 gusting 34 7.2
2015-Mar-05 00:14 049 19 gusting 39 7.2
2015-Mar-05 00:09 024 21 gusting 39 7.2
2015-Mar-05 00:04 024 20 gusting 33 7.2
2015-Mar-04 23:59 071 13 gusting 34 7.2
2015-Mar-04 23:54 033 20 gusting 38 7.2
2015-Mar-04 23:49 053 19 gusting 38 7.2
2015-Mar-04 23:44 024 19 gusting 38 7.2
2015-Mar-04 23:39 005 21 gusting 32 7.2
2015-Mar-04 23:34 009 19 gusting 33 7.2
2015-Mar-04 23:29 030 20 gusting 35 7.8
2015-Mar-04 23:24 036 19 gusting 35 7.8
2015-Mar-04 23:14 005 18 gusting 31 7.8
2015-Mar-04 23:09 046 20 gusting 32 7.8
2015-Mar-04 23:04 050 17 gusting 32 7.8
2015-Mar-04 22:59 019 17 gusting 30 7.8
2015-Mar-04 22:54 031 18 gusting 30 7.8
2015-Mar-04 22:49 049 19 gusting 28 7.8
2015-Mar-04 22:44 065 16 gusting 31 7.8
2015-Mar-04 22:39 078 17 gusting 31 8.3
2015-Mar-04 22:34 056 17 gusting 29 8.3
2015-Mar-04 22:29 031 12 gusting 27 8.3
2015-Mar-04 22:24 036 16 gusting 26 8.3
2015-Mar-04 22:19 036 16 gusting 27 8.3
2015-Mar-04 22:14 078 16 gusting 27 8.3
2015-Mar-04 22:09 031 13 gusting 23 8.3
2015-Mar-04 22:04 058 12 gusting 22 8.9
2015-Mar-04 21:59 078 13 gusting 23 8.9
2015-Mar-04 21:54 055 14 gusting 23 8.9
2015-Mar-04 21:49 055 13 gusting 23 8.9
2015-Mar-04 21:44 063 13 gusting 26 8.9
2015-Mar-04 21:39 072 14 gusting 27 8.9
2015-Mar-04 21:34 061 13 gusting 23 9.4
2015-Mar-04 21:29 040 13 gusting 23 9.4
2015-Mar-04 21:24 066 13 gusting 19 9.4
2015-Mar-04 21:19 053 11 gusting 19 8.9
2015-Mar-04 21:14 033 13 gusting 19 8.9
2015-Mar-04 21:09 046 11 gusting 19 8.9
2015-Mar-04 21:04 046 12 gusting 20 8.9
2015-Mar-04 20:59 046 12 gusting 20 8.9
2015-Mar-04 20:54 036 11 gusting 19 8.9
2015-Mar-04 20:49 052 12 gusting 24 8.9
2015-Mar-04 20:44 026 11 gusting 24 8.9
2015-Mar-04 20:39 049 9 gusting 21 8.9
2015-Mar-04 20:34 060 10 gusting 21 9.4
2015-Mar-04 20:29 059 6 gusting 12 9.4
2015-Mar-04 20:24 042 4 gusting 9 9.4
2015-Mar-04 20:19 036 5 gusting 10 9.4
2015-Mar-04 20:14 024 6 gusting 13 9.4
2015-Mar-04 20:09 040 6 gusting 13 9.4
2015-Mar-04 20:04 030 6 gusting 11 9.4
2015-Mar-04 19:59 041 6 gusting 11 9.4
2015-Mar-04 19:54 043 5 gusting 9 9.4
2015-Mar-04 19:49 011 5 gusting 10 9.4
2015-Mar-04 19:44 049 5 gusting 10 9.4
2015-Mar-04 19:39 018 5 gusting 10 9.4
2015-Mar-04 19:34 032 5 gusting 13 9.4
2015-Mar-04 19:29 040 8 gusting 13 9.4
2015-Mar-04 19:24 058 6 gusting 13 9.4
2015-Mar-04 19:19 045 6 gusting 11 9.4
2015-Mar-04 19:14 041 3 gusting 6 9.4
2015-Mar-04 19:09 043 3 gusting 6 9.4
2015-Mar-04 19:04 022 3 gusting 5 8.9
2015-Mar-04 18:59 016 1 gusting 4 8.9
2015-Mar-04 18:54 016 2 gusting 4 8.9
2015-Mar-04 18:49 034 2 gusting 4 8.9
2015-Mar-04 18:44 034 2 gusting 5 8.9
2015-Mar-04 18:39 034 3 gusting 6 8.9
2015-Mar-04 18:34 049 3 gusting 6 8.9
2015-Mar-04 18:29 054 4 gusting 7 8.9
2015-Mar-04 18:24 045 6 gusting 7 8.9
2015-Mar-04 18:19 045 4 gusting 6 8.9
2015-Mar-04 18:14 015 3 gusting 5 8.9
2015-Mar-04 18:09 086 1 gusting 3 8.9
2015-Mar-04 18:04 086 0 gusting 3 8.9
2015-Mar-04 17:59 086 1 gusting 3 8.9
2015-Mar-04 17:54 086 8.9
2015-Mar-04 17:49 086 8.9
2015-Mar-04 17:44 086 1 gusting 3 8.9
2015-Mar-04 17:39 128 8.9
2015-Mar-04 17:34 128 8.9
2015-Mar-04 17:29 128 0 gusting 2 8.9
2015-Mar-04 17:19 081 1 gusting 2 8.9
2015-Mar-04 17:09 081 0 gusting 1 8.9
2015-Mar-04 17:04 081 8.9